{"data":{"norad_id":57777,"epoch":"2026-05-24T23:35:47.990112Z","epoch_age_seconds":79549,"freshness":"FRESH","line1":"1 57777U 23134G   26144.98319433  .00001428  00000+0  61401-4 0  9993","line2":"2 57777  43.0001 127.1150 0000953 264.8181  95.2561 15.27582954151123","mean_motion":15.27582954,"eccentricity":9.53e-5,"inclination_deg":43.0001,"raan_deg":127.115,"arg_perigee_deg":264.8181,"mean_anomaly_deg":95.2561,"bstar":6.1401e-5,"rev_number":15112,"period_min":94.266566423076,"perigee_km":482.38638052322,"apogee_km":483.6941209072,"semimajor_km":6861.1772507152,"source":"CELESTRAK","updated_at":"2026-05-25T13:38:18.404959Z"}}